Creil Fafb, France

6:14 PM CET on February 25, 2017 (GMT +0100)
Creil Air Base

Weather History for LFPC - July, 2013

Change the Weather History Date:

Wednesday, July 3, 2013

  Actual Average (LFPG) Record (LFPG)
Temperature  
Mean Temperature 63 °F -  
Max Temperature 69 °F 74 °F 96 °F (2015)
Min Temperature 57 °F 56 °F 46 °F (2011)
Degree Days  
Heating Degree Days 2    
Growing Degree Days 13 (Base 50)    
Moisture  
Dew Point 56 °F    
Average Humidity 82    
Maximum Humidity 100    
Minimum Humidity 68    
Precipitation  
Precipitation 0.00 in - - ()
Sea Level Pressure  
Sea Level Pressure 29.87 in    
Wind  
Wind Speed 10 mph ()    
Max Wind Speed 16 mph    
Max Gust Speed -    
Visibility 6.1 miles    
Events Rain    
Averages and records for this station are not official NWS values.
T = Trace of Precipitation, MM = Missing Value Source: Averaged Metar Reports

Daily Weather History Graph

Daily Weather History Graph

Search for Another Location

Airport or City:

Trip Planner

Search our weather history database for the weather conditions in past years. The results will help you decide how hot, cold, wet, or windy it might be!

Date:

Astronomy

Jul. 03, 2013 Rise Set
Actual Time 5:49 AM CEST 9:58 PM CEST
Civil Twilight 5:07 AM CEST 10:40 PM CEST
Nautical Twilight 4:06 AM CEST 11:40 PM CEST
Astronomical Twilight 2:26 AM CEST 1:21 AM CEST
Moon 2:31 AM CEST (7/3) 5:44 PM CEST (7/3)
Length of Visible Light 17h 33m
Length of Day
16h 08m
Waning Crescent, 20% of the Moon is Illuminated
Jul 3
Waning Crescent
Jul 8
New
Jul 16
First Quarter
Jul 22
Full
Jul 29
Last Quarter

Hourly Weather History & Observations

Time (CEST) Temp. Dew Point Humidity Pressure Visibility Wind Dir Wind Speed Gust Speed Precip Events Conditions
12:00 AM 69.8 °F 59.0 °F 68% 29.80 in 6.2 mi WSW 13.8 mph - N/A   Mostly Cloudy
12:30 AM 68.0 °F 57.2 °F 68% 29.80 in 6.2 mi WSW 13.8 mph - N/A   Overcast
1:00 AM 66.2 °F 57.2 °F 73% 29.80 in 6.2 mi WSW 16.1 mph - N/A Rain Light Rain
1:30 AM 64.4 °F 59.0 °F 83% 29.80 in 6.2 mi WSW 13.8 mph - N/A Rain Light Rain
2:00 AM 62.6 °F 57.2 °F 82% 29.80 in 6.2 mi SW 10.4 mph - N/A Rain Light Rain
2:30 AM 60.8 °F 57.2 °F 88% 29.80 in 6.2 mi SW 11.5 mph - N/A Rain Light Rain
3:00 AM 60.8 °F 57.2 °F 88% 29.80 in 5.0 mi SW 11.5 mph - N/A Rain Rain
3:30 AM 59.0 °F 57.2 °F 94% 29.77 in 6.2 mi SW 10.4 mph - N/A Rain Light Rain
4:00 AM 59.0 °F 57.2 °F 94% 29.77 in 6.2 mi SW 6.9 mph - N/A   Mostly Cloudy
4:30 AM 59.0 °F 57.2 °F 94% 29.77 in 6.2 mi SSW 6.9 mph - N/A   Mostly Cloudy
5:00 AM 59.0 °F 57.2 °F 94% 29.77 in 6.2 mi SSW 10.4 mph - N/A   Overcast
5:30 AM 59.0 °F 57.2 °F 94% 29.77 in 6.2 mi SSW 6.9 mph - N/A   Overcast
6:00 AM 59.0 °F 57.2 °F 94% 29.77 in 6.2 mi SSW 9.2 mph - N/A   Overcast
6:30 AM 59.0 °F 57.2 °F 94% 29.77 in 6.2 mi SSW 9.2 mph - N/A   Overcast
7:00 AM 59.0 °F 55.4 °F 88% 29.77 in 6.2 mi WSW 11.5 mph - N/A   Overcast
7:30 AM 59.0 °F 57.2 °F 94% 29.77 in - SW 10.4 mph - N/A Rain Heavy Rain
8:00 AM 59.0 °F 57.2 °F 94% 29.77 in 4.3 mi SW 9.2 mph - N/A   Overcast
8:30 AM 59.0 °F 57.2 °F 94% 29.80 in 5.0 mi SW 9.2 mph - N/A   Light Drizzle
9:00 AM 59.0 °F 57.2 °F 94% 29.80 in 6.2 mi SW 10.4 mph - N/A   Overcast
9:30 AM 59.0 °F 59.0 °F 100% 29.80 in 4.3 mi SW 9.2 mph - N/A   Overcast
10:00 AM 60.8 °F 59.0 °F 94% 29.80 in 6.2 mi SW 11.5 mph - N/A   Overcast
10:30 AM 62.6 °F 60.8 °F 94% 29.80 in 6.2 mi WSW 12.7 mph - N/A   Overcast
11:00 AM 62.6 °F 59.0 °F 88% 29.83 in 6.2 mi WSW 11.5 mph - N/A   Overcast
11:30 AM 64.4 °F 60.8 °F 88% 29.83 in 6.2 mi West 12.7 mph - N/A   Overcast
12:00 PM 60.8 °F 59.0 °F 94% 29.83 in 6.2 mi WSW 10.4 mph - N/A   Mostly Cloudy
12:30 PM 64.4 °F 60.8 °F 88% 29.83 in 6.2 mi WSW 8.1 mph - N/A   Mostly Cloudy
1:00 PM 64.4 °F 57.2 °F 77% 29.86 in 6.2 mi WSW 12.7 mph - N/A   Mostly Cloudy
1:30 PM 64.4 °F 57.2 °F 77% 29.86 in 6.2 mi West 10.4 mph - N/A   Overcast
2:00 PM 66.2 °F 57.2 °F 73% 29.86 in 6.2 mi West 11.5 mph - N/A   Overcast
2:30 PM 66.2 °F 55.4 °F 68% 29.86 in 6.2 mi West 15.0 mph - N/A   Overcast
3:00 PM 64.4 °F 55.4 °F 73% 29.89 in 6.2 mi West 11.5 mph - N/A   Overcast
3:30 PM 66.2 °F 55.4 °F 68% 29.89 in 6.2 mi WNW 11.5 mph - N/A   Overcast
4:00 PM 64.4 °F 53.6 °F 68% 29.89 in 6.2 mi West 13.8 mph - N/A   Mostly Cloudy
4:30 PM 64.4 °F 55.4 °F 73% 29.92 in 6.2 mi West 10.4 mph - N/A   Overcast
5:00 PM 62.6 °F 53.6 °F 72% 29.92 in 6.2 mi West 12.7 mph - N/A   Overcast
5:30 PM 62.6 °F 53.6 °F 72% 29.95 in 6.2 mi West 11.5 mph - N/A   Overcast
6:00 PM 62.6 °F 53.6 °F 72% 29.95 in 6.2 mi WNW 13.8 mph - N/A   Overcast
6:30 PM 62.6 °F 51.8 °F 68% 29.95 in 6.2 mi West 13.8 mph - N/A   Overcast
7:00 PM 60.8 °F 51.8 °F 72% 29.98 in 6.2 mi West 11.5 mph - N/A   Overcast
7:30 PM 60.8 °F 51.8 °F 72% 29.98 in 6.2 mi WNW 10.4 mph - N/A   Overcast
8:00 PM 60.8 °F 53.6 °F 77% 29.98 in 6.2 mi WNW 4.6 mph - N/A   Overcast
8:30 PM 60.8 °F 53.6 °F 77% 30.01 in 6.2 mi West 8.1 mph - N/A   Overcast
9:00 PM 60.8 °F 53.6 °F 77% 30.01 in 6.2 mi West 8.1 mph - N/A   Overcast
9:30 PM 59.0 °F 51.8 °F 77% 30.04 in 6.2 mi West 10.4 mph - N/A   Overcast
10:00 PM 59.0 °F 51.8 °F 77% 30.04 in 6.2 mi West 5.8 mph - N/A   Overcast
10:30 PM 59.0 °F 51.8 °F 77% 30.06 in 6.2 mi West 5.8 mph - N/A   Overcast
11:00 PM 57.2 °F 51.8 °F 82% 30.06 in 6.2 mi West 5.8 mph - N/A   Unknown
11:30 PM 57.2 °F 51.8 °F 82% 30.06 in 6.2 mi West 4.6 mph - N/A   Unknown